[[{"header":{"parameterUnit":"m.s-1","parameterCategory":2,"la1":30.2992,"la2":30.254,"lo1":-89.0895,"lo2":-89.0443,"dy":0.0025,"dx":0.0025,"nx":19,"ny":19,"refTime":"2026-04-29T03:00:00:Z","depth":"0","parameterNumber":2,"parameterNumberName":"U-component_of_CURRENTS"},"data":[0,0,0,0.1277,0.128,0.1421,0.1422,0.1536,0.1537,0,0,0,0,0,0,0,0,0,0,0,0.1223,0.1224,0.1277,0.128,0.1421,0.1422,0.1536,0.1537,0,0,0,0,0,0,0,0,0,0,0,0.1223,0.1224,0.1225,0.1281,0.1421,0.1422,0.1536,0.1445,0,0,0,0,0,0,0,0,0,0,0.1316,0.1267,0.1224,0.1225,0.1282,0.1421,0.1422,0.1441,0.145,0.1454,0,0.1481,0,0.1515,0.1543,0.1544,0,0,0,0.1277,0.1259,0.1309,0.1226,0.1283,0.1421,0.1357,0.1447,0.1457,0.1466,0.1483,0.1488,0.1517,0.1544,0.1544,0.1649,0.1649,0,0,0.1269,0.1237,0.1302,0.1316,0.1325,0.1352,0.1361,0.1454,0.1458,0.1484,0.1491,0.1519,0.1545,0.1545,0.1648,0.1649,0,0,0,0.1249,0.1231,0.128,0.1311,0.1344,0.1356,0.1367,0.1454,0.1474,0.1493,0.152,0.1545,0.1546,0.1648,0.1648,0.1676,0,0,0,0.1244,0.122,0.1276,0.1257,0.1342,0.1408,0.1364,0.1467,0.148,0.1519,0.1545,0.1547,0.1647,0.1648,0.1674,0.1662,0,0,0,0.1216,0.1217,0.1238,0.1255,0.132,0.1407,0.1433,0.1471,0.1496,0.1544,0.1547,0.1647,0.1648,0.1673,0.166,0.1692,0,0,0,0.1171,0.1214,0.1237,0.1288,0.1319,0.1418,0.1433,0.1501,0.1544,0.1546,0.1647,0.1648,0.1672,0.1659,0.1691,0.1736,0.1746,0,0,0.1203,0.1217,0.1248,0.1272,0.1359,0.1398,0.1485,0.1541,0.1558,0.161,0.1614,0.1675,0.166,0.1692,0.1794,0.1802,0,0,0,0.1243,0.1264,0.1295,0.1349,0.1419,0.1481,0.1548,0.1578,0.164,0.159,0.1687,0.1677,0.1696,0.1721,0.1728,0.1738,0.1653,0.1653,0.1653,0.1218,0.1269,0.1322,0.1396,0.1453,0.1546,0.1599,0.1651,0.1671,0.1702,0.171,0.1762,0.1791,0.1797,0.1807,0.1735,0.1735,0.1735,0.1735,0.1246,0.1276,0.1332,0.14,0.1468,0.1537,0.1646,0.168,0.1761,0.1752,0.1771,0.1761,0.1806,0.1814,0.1737,0.1737,0.1736,0.1736,0.1736,0.122,0.1246,0.1284,0.1364,0.1431,0.1522,0.1609,0.1686,0.1759,0.1795,0.1831,0.1831,0.1829,0.1813,0.1813,0.1814,0.1814,0.1814,0.1814,0.1173,0.1222,0.1252,0.133,0.1364,0.1442,0.1584,0.1669,0.1793,0.1851,0.1852,0.1855,0.1786,0.1772,0.1815,0.1815,0.1815,0.1815,0.1815,0.1167,0.1174,0.1215,0.1245,0.1329,0.1387,0.1524,0.1713,0.1809,0.188,0.1946,0.1895,0.1887,0.1882,0.1871,0.1937,0.1937,0.1937,0.1937,0.1137,0.1153,0.1187,0.1221,0.1278,0.1365,0.1487,0.1675,0.1892,0.1982,0.2002,0.2,0.1995,0.1992,0.1984,0.1974,0.2065,0.2065,0.2066,0.1126,0.1137,0.1147,0.1191,0.1253,0.1337,0.1433,0.1582,0.1905,0.2069,0.2007,0.2002,0.1995,0.1985,0.1975,0.1964,0.1944,0,0]},{"header":{"parameterUnit":"m.s-1","parameterCategory":2,"la1":30.2992,"la2":30.254,"lo1":-89.0895,"lo2":-89.0443,"dy":0.0025,"dx":0.0025,"nx":19,"ny":19,"refTime":"2026-04-29T03:00:00:Z","depth":"0","parameterNumber":3,"parameterNumberName":"V-component_of_CURRENTS"},"data":[0,0,0,0.0053,0.0052,0.0022,0.0021,-0.0021,-0.0021,0,0,0,0,0,0,0,0,0,0,0,0.0062,0.0062,0.0053,0.0052,0.0022,0.0021,-0.0021,-0.0021,0,0,0,0,0,0,0,0,0,0,0,0.0062,0.0062,0.0062,0.0052,0.0022,0.0021,-0.0021,0.0002,0,0,0,0,0,0,0,0,0,0,0.0032,0.0053,0.0062,0.0062,0.0052,0.0022,0.0021,0.0003,0.0001,-0.0007,0,-0.0011,0,-0.0015,-0.0024,-0.0024,0,0,0,0.0049,0.0055,0.0037,0.0062,0.0051,0.0022,0.0034,0.0002,-0.0001,-0.001,-0.0011,-0.0013,-0.0016,-0.0024,-0.0024,-0.0028,-0.0028,0,0,0.005,0.0065,0.0039,0.0035,0.0044,0.0035,0.0033,0.0,0.0003,-0.0012,-0.0014,-0.0017,-0.0024,-0.0024,-0.0028,-0.0028,0,0,0,0.0057,0.0066,0.0049,0.0037,0.0033,0.0035,0.0032,0.0005,-0.0004,-0.0014,-0.0017,-0.0024,-0.0025,-0.0029,-0.0028,0.0022,0,0,0,0.0058,0.007,0.005,0.006,0.0033,0.0022,0.0038,-0.0001,-0.0005,-0.0017,-0.0024,-0.0025,-0.0029,-0.0028,0.002,0.0064,0,0,0,0.0063,0.0071,0.0065,0.006,0.0047,0.0022,0.0012,-0.0002,-0.0007,-0.0024,-0.0025,-0.0029,-0.0028,0.0018,0.006,0.0103,0,0,0,0.0081,0.0079,0.0066,0.0075,0.0048,0.004,0.0012,0.0004,-0.0008,-0.0025,-0.0029,-0.0028,0.0018,0.0058,0.0101,0.0183,0.0202,0,0,0.0088,0.0081,0.0088,0.0075,0.0084,0.0044,0.0057,0.0027,-0.0001,-0.002,-0.002,0.002,0.006,0.0103,0.0217,0.0235,0,0,0,0.0097,0.0103,0.0104,0.0109,0.0095,0.0094,0.0057,0.0048,0.0033,-0.0005,0.0018,0.0042,0.0068,0.0111,0.0125,0.008,-0.0025,-0.0026,-0.0026,0.0131,0.013,0.0148,0.0144,0.0141,0.0125,0.0129,0.0108,0.0063,0.0067,0.008,0.0147,0.0193,0.0205,0.0156,0.0065,0.0065,0.0065,0.0066,0.0165,0.0177,0.0186,0.0197,0.0194,0.0196,0.0192,0.0172,0.0186,0.0132,0.0153,0.0159,0.0224,0.0166,0.0069,0.0068,0.0068,0.0067,0.0067,0.0191,0.0194,0.0205,0.0232,0.0251,0.0243,0.0293,0.0271,0.0246,0.0268,0.0302,0.0302,0.0255,0.0265,0.0266,0.0266,0.0266,0.0267,0.0267,0.0207,0.0217,0.0248,0.0271,0.0291,0.0326,0.0351,0.0383,0.0406,0.0385,0.0385,0.0282,0.0208,0.0204,0.0273,0.0272,0.0271,0.0271,0.027,0.0228,0.0238,0.0286,0.0314,0.0379,0.0469,0.0478,0.057,0.0578,0.0613,0.0472,0.0447,0.0445,0.0434,0.0435,0.056,0.056,0.056,0.056,0.0246,0.0254,0.0332,0.0394,0.047,0.0538,0.0713,0.0782,0.071,0.0655,0.0563,0.0518,0.0508,0.0505,0.0492,0.0493,0.0629,0.0629,0.0628,0.0271,0.0292,0.0358,0.0425,0.0513,0.0643,0.0851,0.0999,0.0825,0.0621,0.0484,0.0481,0.0398,0.0387,0.0364,0.0349,0.0343,0,0]}],[{"header":{"parameterUnit":"m.s-1","parameterCategory":2,"la1":30.2992,"la2":30.254,"lo1":-89.0895,"lo2":-89.0443,"dy":0.0025,"dx":0.0025,"nx":19,"ny":19,"refTime":"2026-04-29T03:00:00:Z","depth":"2","parameterNumber":2,"parameterNumberName":"U-component_of_CURRENTS"},"data":[0,0,0,0.1121,0.1124,0.1252,0.1253,0.1316,0.1317,0,0,0,0,0,0,0,0,0,0,0,0.107,0.1071,0.1121,0.1125,0.1252,0.1253,0.1316,0.1317,0,0,0,0,0,0,0,0,0,0,0,0.1069,0.107,0.1072,0.1125,0.1252,0.1253,0.1316,0.1241,0,0,0,0,0,0,0,0,0,0,0.1128,0.1092,0.107,0.1072,0.1126,0.1252,0.1253,0.1239,0.1246,0.1234,0,0.1264,0,0.13,0.132,0.132,0,0,0,0.1111,0.1086,0.1133,0.1072,0.1127,0.1252,0.1191,0.1243,0.1251,0.1243,0.1266,0.1269,0.1301,0.132,0.132,0.1388,0.1388,0,0,0.1104,0.1077,0.1128,0.1138,0.1173,0.1187,0.1195,0.1249,0.1253,0.1266,0.1272,0.1302,0.132,0.1321,0.1388,0.1388,0,0,0,0.1093,0.1072,0.1119,0.1134,0.1171,0.1191,0.12,0.125,0.127,0.1273,0.1303,0.1321,0.1321,0.1387,0.1388,0.1439,0,0,0,0.1088,0.1067,0.1116,0.1099,0.117,0.1225,0.12,0.1266,0.1274,0.1302,0.1321,0.1322,0.1387,0.1388,0.1437,0.1426,0,0,0,0.1062,0.1064,0.1086,0.1097,0.1162,0.1225,0.1248,0.1269,0.1293,0.132,0.1322,0.1387,0.1387,0.1435,0.1423,0.1466,0,0,0,0.1019,0.1059,0.1085,0.1123,0.1161,0.1238,0.1248,0.1302,0.1328,0.1321,0.1387,0.1388,0.1434,0.1422,0.1465,0.1487,0.1497,0,0,0.1045,0.1061,0.108,0.1108,0.1179,0.1219,0.1291,0.133,0.1335,0.1358,0.1361,0.1438,0.1423,0.1466,0.1539,0.1548,0,0,0,0.1072,0.1094,0.1116,0.1163,0.1218,0.1285,0.1339,0.1367,0.1418,0.136,0.1442,0.143,0.1456,0.1466,0.1473,0.1392,0.1392,0.1392,0.1392,0.106,0.1096,0.1137,0.12,0.1249,0.1338,0.1384,0.1432,0.1443,0.1481,0.1477,0.1544,0.1556,0.1562,0.1499,0.15,0.15,0.15,0.15,0.1086,0.1107,0.1153,0.1211,0.1279,0.1341,0.144,0.1476,0.1546,0.1535,0.1559,0.1524,0.1573,0.1504,0.1503,0.1503,0.1502,0.1502,0.1502,0.1062,0.1084,0.1117,0.119,0.1256,0.1343,0.1422,0.1495,0.1564,0.1595,0.1621,0.162,0.1565,0.1629,0.1629,0.1629,0.1629,0.1629,0.1629,0.1024,0.1066,0.1094,0.1168,0.1203,0.1283,0.1415,0.1491,0.1611,0.1654,0.1655,0.1587,0.1583,0.1572,0.1632,0.1632,0.1631,0.1631,0.1631,0.1019,0.1021,0.1063,0.1094,0.1178,0.1227,0.1363,0.1537,0.1629,0.1693,0.1698,0.1695,0.1676,0.167,0.1661,0.174,0.174,0.174,0.174,0.0992,0.1003,0.1039,0.1072,0.1131,0.1208,0.1297,0.1396,0.1553,0.1561,0.1567,0.1532,0.1534,0.1502,0.1499,0.1485,0.1517,0.1517,0.1516,0.0984,0.0997,0.1006,0.1043,0.1106,0.1178,0.1214,0.1228,0.1325,0.1496,0.1412,0.1747,0.1715,0.171,0.1675,0.1666,0.1648,0,0]},{"header":{"parameterUnit":"m.s-1","parameterCategory":2,"la1":30.2992,"la2":30.254,"lo1":-89.0895,"lo2":-89.0443,"dy":0.0025,"dx":0.0025,"nx":19,"ny":19,"refTime":"2026-04-29T03:00:00:Z","depth":"2","parameterNumber":3,"parameterNumberName":"V-component_of_CURRENTS"},"data":[0,0,0,-0.0115,-0.0116,-0.0159,-0.0159,-0.0212,-0.0213,0,0,0,0,0,0,0,0,0,0,0,-0.0103,-0.0103,-0.0115,-0.0116,-0.0159,-0.0159,-0.0212,-0.0213,0,0,0,0,0,0,0,0,0,0,0,-0.0103,-0.0103,-0.0104,-0.0116,-0.0159,-0.0159,-0.0212,-0.0182,0,0,0,0,0,0,0,0,0,0,-0.0141,-0.0116,-0.0103,-0.0104,-0.0116,-0.0159,-0.0159,-0.018,-0.0183,-0.019,0,-0.0196,0,-0.0201,-0.0215,-0.0216,0,0,0,-0.0122,-0.0113,-0.0135,-0.0104,-0.0117,-0.0159,-0.0141,-0.0182,-0.0186,-0.0194,-0.0196,-0.0198,-0.0202,-0.0216,-0.0216,-0.023,-0.023,0,0,-0.012,-0.0102,-0.0132,-0.0137,-0.0127,-0.014,-0.0143,-0.0184,-0.0182,-0.0196,-0.0199,-0.0203,-0.0216,-0.0216,-0.023,-0.023,0,0,0,-0.0109,-0.0101,-0.0121,-0.0135,-0.0141,-0.0141,-0.0144,-0.018,-0.0189,-0.02,-0.0204,-0.0216,-0.0217,-0.023,-0.023,-0.0172,0,0,0,-0.0108,-0.0094,-0.012,-0.0109,-0.014,-0.0158,-0.0138,-0.0187,-0.0192,-0.0203,-0.0216,-0.0217,-0.023,-0.023,-0.0174,-0.0131,0,0,0,-0.0101,-0.0093,-0.01,-0.0108,-0.0125,-0.0157,-0.0169,-0.0188,-0.0193,-0.0216,-0.0217,-0.023,-0.023,-0.0176,-0.0135,-0.009,0,0,0,-0.008,-0.0086,-0.0099,-0.0102,-0.0124,-0.0151,-0.0169,-0.0186,-0.0203,-0.0216,-0.023,-0.023,-0.0176,-0.0137,-0.0092,-0.0026,-0.0008,0,0,-0.0078,-0.0085,-0.0087,-0.01,-0.0107,-0.0145,-0.0142,-0.0169,-0.0198,-0.0218,-0.0219,-0.0173,-0.0135,-0.009,-0.0002,0.0015,0,0,0,-0.008,-0.0076,-0.0083,-0.0085,-0.0113,-0.0111,-0.0148,-0.0154,-0.0165,-0.0205,-0.0181,-0.0159,-0.0132,-0.0098,-0.0085,-0.0228,-0.0228,-0.0228,-0.0228,-0.0039,-0.0052,-0.0047,-0.006,-0.007,-0.0088,-0.0086,-0.0102,-0.0144,-0.0133,-0.0119,-0.0052,-0.0016,-0.0005,-0.0136,-0.0136,-0.0136,-0.0136,-0.0136,-0.001,-0.0008,-0.0006,-0.0006,-0.0009,-0.001,-0.0017,-0.0031,-0.0017,-0.0066,-0.0044,-0.0047,0.0014,-0.0131,-0.0132,-0.0133,-0.0133,-0.0133,-0.0134,0.0015,0.0012,0.002,0.0041,0.0057,0.0049,0.0094,0.0073,0.0049,0.0068,0.0097,0.0097,0.0001,0.0074,0.0075,0.0075,0.0075,0.0076,0.0076,0.0034,0.0038,0.0066,0.0086,0.0105,0.0142,0.0162,0.019,0.0209,0.0181,0.0181,0.0019,0.0012,0.0012,0.0082,0.0081,0.008,0.008,0.0079,0.0051,0.006,0.0107,0.0135,0.0199,0.0283,0.029,0.0371,0.0375,0.0403,0.0244,0.0238,0.0231,0.022,0.0225,0.0345,0.0345,0.0345,0.0345,0.0069,0.0074,0.0154,0.0214,0.0291,0.0353,0.0508,0.0536,0.0482,0.0405,0.0402,0.0358,0.0347,0.0342,0.0328,0.0332,0.0481,0.0481,0.0481,0.0095,0.0116,0.0182,0.0245,0.0333,0.0456,0.0635,0.0694,0.0544,0.0481,0.0372,0.0365,0.0289,0.0276,0.0256,0.0238,0.024,0,0]}],[{"header":{"parameterUnit":"m.s-1","parameterCategory":2,"la1":30.2992,"la2":30.254,"lo1":-89.0895,"lo2":-89.0443,"dy":0.0025,"dx":0.0025,"nx":19,"ny":19,"refTime":"2026-04-29T03:00:00:Z","depth":"4","parameterNumber":2,"parameterNumberName":"U-component_of_CURRENTS"},"data":[0,0,0,-0.0125,-0.0128,-0.0233,-0.0233,-0.0221,-0.0221,0,0,0,0,0,0,0,0,0,0,0,-0.0079,-0.008,-0.0125,-0.0129,-0.0233,-0.0233,-0.0221,-0.0221,0,0,0,0,0,0,0,0,0,0,0,-0.0078,-0.0079,-0.0081,-0.0129,-0.0233,-0.0233,-0.0221,-0.0172,0,0,0,0,0,0,0,0,0,0,-0.0086,-0.005,-0.0079,-0.0081,-0.013,-0.0233,-0.0233,-0.0171,-0.0175,-0.0141,0,-0.0177,0,-0.0214,-0.022,-0.022,0,0,0,-0.0101,-0.0047,-0.0107,-0.0081,-0.0131,-0.0233,-0.0178,-0.0174,-0.0179,-0.0146,-0.0178,-0.0179,-0.0213,-0.0219,-0.0219,-0.0231,-0.0231,0,0,-0.0095,-0.0059,-0.0104,-0.011,-0.0181,-0.0175,-0.0182,-0.0178,-0.017,-0.0178,-0.0179,-0.0213,-0.0219,-0.0219,-0.023,-0.0231,0,0,0,-0.0097,-0.0054,-0.0116,-0.0109,-0.0148,-0.0179,-0.0186,-0.0169,-0.02,-0.018,-0.0213,-0.0219,-0.0219,-0.023,-0.023,-0.0193,0,0,0,-0.0092,-0.0059,-0.0114,-0.0087,-0.015,-0.0175,-0.0177,-0.02,-0.0202,-0.0213,-0.0219,-0.0219,-0.023,-0.023,-0.0193,-0.0171,0,0,0,-0.007,-0.0055,-0.0083,-0.0086,-0.015,-0.0177,-0.0206,-0.0201,-0.0223,-0.0219,-0.0219,-0.0229,-0.023,-0.0194,-0.0172,-0.011,0,0,0,-0.0007,-0.0066,-0.0081,-0.0141,-0.015,-0.0195,-0.0206,-0.0216,-0.0212,-0.0219,-0.023,-0.023,-0.0194,-0.0173,-0.0111,-0.0057,0,0,0,-0.0054,-0.007,-0.0107,-0.0126,-0.0156,-0.0178,-0.019,-0.0191,-0.0213,-0.0214,-0.0216,-0.0193,-0.0172,-0.011,-0.01,0,0,0,0,-0.0104,-0.013,-0.0138,-0.0163,-0.0185,-0.0177,-0.019,-0.0208,-0.0224,-0.0224,-0.0218,-0.0207,-0.0168,-0.0143,-0.0234,-0.0234,-0.0234,-0.0234,-0.0234,-0.0074,-0.0112,-0.0136,-0.0169,-0.0171,-0.0172,-0.0181,-0.0212,-0.0208,-0.0226,-0.0195,-0.0149,-0.0126,-0.022,-0.022,-0.022,-0.022,-0.022,-0.022,-0.0121,-0.015,-0.0136,-0.0184,-0.0152,-0.0152,-0.0169,-0.0181,-0.0171,-0.0203,-0.0165,-0.0131,-0.0217,-0.0217,-0.0218,-0.0218,-0.0218,-0.0218,-0.0219,-0.0112,-0.0134,-0.0158,-0.0177,-0.0151,-0.0136,-0.0093,-0.0117,-0.0134,-0.011,-0.0032,-0.0111,-0.0089,-0.0055,-0.0054,-0.0054,-0.0054,-0.0054,-0.0053,-0.0101,-0.0127,-0.0141,-0.0163,-0.0139,-0.0092,-0.004,-0.001,-0.0009,0.0019,-0.0061,-0.0093,-0.0098,-0.008,-0.0048,-0.0049,-0.005,-0.005,-0.005,-0.0149,-0.0134,-0.0157,-0.0145,-0.009,-0.0045,0.0019,0.012,0.0172,0.0185,0.0086,0.0077,0.0081,0.0072,0.0096,0.0182,0.0183,0.0184,0,-0.0147,-0.0153,-0.0143,-0.0106,-0.0042,-0.0005,0.0135,0.0187,0.0175,0.0173,0.0114,-0.0004,-0.0008,-0.0014,-0.002,0.0003,0,0,0,-0.0157,-0.0147,-0.0126,-0.009,-0.0017,0.0098,0.0175,0.0218,0.0178,0.0251,0.0206,0.02,0.0035,-0.0031,-0.0045,-0.0052,-0.0023,0,0]},{"header":{"parameterUnit":"m.s-1","parameterCategory":2,"la1":30.2992,"la2":30.254,"lo1":-89.0895,"lo2":-89.0443,"dy":0.0025,"dx":0.0025,"nx":19,"ny":19,"refTime":"2026-04-29T03:00:00:Z","depth":"4","parameterNumber":3,"parameterNumberName":"V-component_of_CURRENTS"},"data":[0,0,0,0.0195,0.0197,0.0251,0.0251,0.0299,0.03,0,0,0,0,0,0,0,0,0,0,0,0.017,0.0171,0.0195,0.0197,0.0251,0.0251,0.0299,0.03,0,0,0,0,0,0,0,0,0,0,0,0.017,0.0171,0.0172,0.0197,0.0251,0.0251,0.0299,0.0258,0,0,0,0,0,0,0,0,0,0,0.0206,0.0176,0.0171,0.0172,0.0198,0.0251,0.0251,0.0256,0.026,0.0276,0,0.0299,0,0.0314,0.0304,0.0305,0,0,0,0.0174,0.0172,0.0211,0.0172,0.0199,0.0251,0.022,0.0258,0.0263,0.0282,0.03,0.0302,0.0315,0.0305,0.0305,0.0372,0.0372,0,0,0.0171,0.0153,0.0208,0.0215,0.0233,0.0218,0.0222,0.0261,0.026,0.03,0.0304,0.0316,0.0305,0.0306,0.0372,0.0372,0,0,0,0.0178,0.015,0.0188,0.0213,0.0232,0.0221,0.0225,0.0258,0.0278,0.0304,0.0316,0.0306,0.0307,0.0372,0.0372,0.0301,0,0,0,0.0175,0.0157,0.0187,0.0172,0.0232,0.0245,0.022,0.0275,0.028,0.0316,0.0306,0.0307,0.0372,0.0372,0.0302,0.0288,0,0,0,0.0164,0.0154,0.0173,0.0172,0.0209,0.0245,0.0265,0.0276,0.0289,0.0305,0.0308,0.0372,0.0372,0.0304,0.0291,0.0276,0,0,0,0.0126,0.0159,0.0172,0.0193,0.0209,0.0226,0.0265,0.0267,0.0275,0.0306,0.0372,0.0372,0.0304,0.0292,0.0277,0.0305,0,0,0,0.0147,0.016,0.0169,0.0184,0.0194,0.0215,0.0216,0.0247,0.0292,0.0353,0.0355,0.0302,0.0291,0.0276,0.0333,0,0,0,0,0.0161,0.0168,0.017,0.018,0.0195,0.02,0.0225,0.0246,0.0288,0.0308,0.0331,0.0328,0.032,0.0342,0.0374,0.0374,0.0374,0.0374,0.0374,0.0138,0.015,0.0155,0.017,0.0172,0.0186,0.0193,0.0237,0.0265,0.0281,0.029,0.0262,0.0285,0.0307,0.0306,0.0306,0.0306,0.0306,0.0305,0.0139,0.0149,0.0142,0.0154,0.0158,0.016,0.0189,0.0203,0.0228,0.0262,0.0257,0.0292,0.0299,0.03,0.0301,0.0302,0.0303,0.0303,0.0303,0.012,0.0137,0.0132,0.0136,0.0142,0.0152,0.0188,0.0184,0.019,0.0176,0.0219,0.0231,0.0213,0.0171,0.017,0.017,0.017,0.017,0.017,0.0115,0.0122,0.0116,0.0121,0.0132,0.0155,0.018,0.019,0.0166,0.0166,0.0163,0.0218,0.0222,0.0208,0.0168,0.0168,0.0168,0.0169,0.0169,0.0128,0.0108,0.0119,0.012,0.0155,0.0181,0.0203,0.0199,0.0192,0.0159,0.0166,0.0167,0.0202,0.0207,0.0193,0.0147,0.0147,0.0147,0,0.012,0.0114,0.0128,0.0151,0.019,0.0209,0.0242,0.024,0.0182,0.0178,0.0175,0.0184,0.0184,0.0227,0.0232,0.0218,0,0,0,0.0113,0.0124,0.0141,0.0164,0.0211,0.0236,0.0257,0.0248,0.0192,0.0179,0.0153,0.0151,0.0194,0.0162,0.0218,0.0223,0.0203,0,0]}]]